Regional Weather Roundup
Issued by NWS

Home | Current Version | Previous Version | Graphics & Text | Print | Product List | Glossary On
Versions: 1 2 3 4 5 6 7 8 9 10 11 12 13 14 15 16 17 18 19 20 21 22 23 24 25 26 27 28 29 30 31 32 33 34 35 36 37 38 39 40 41 42 43 44 45 46 47 48 49 50
000
ASUS43 KDTX 272210
RWRMI
MICHIGAN HOURLY REGIONAL WEATHER ROUNDUP
NATIONAL WEATHER SERVICE DETROIT/PONTIAC MI
600 PM EDT WED APR 27 2016

NOTE: "FAIR" INDICATES FEW OR NO CLOUDS BELOW 12,000 FEET WITH NO
SIGNIFICANT WEATHER AND/OR OBSTRUCTION TO VISIBILITY.

MIZ047>049-052>055-059>063-066>070-074>076-081>083-272300-
SOUTHEAST LOWER MICHIGAN

CITY           SKY/WX    TMP DP  RH WIND       PRES   REMARKS
ADRIAN         MOSUNNY   56  34  43 SE12      29.95R
ALMA           CLOUDY    52  27  38 E10       29.98F
ANN ARBOR      SUNNY     58  27  30 E7        29.95R
BAD AXE        SUNNY     46  22  37 NE5       30.01S
CARO           CLOUDY    52  27  38 N5        29.99R
DETROIT CITY   PTSUNNY   55  20  25 NE13      29.98R
DETROIT        PTSUNNY   57  26  30 NE9       29.97R
FLINT          CLOUDY    60  34  37 E8        29.96S
GROSSE ILE     MOSUNNY   57  27  30 NE10      29.96R
HILLSDALE      CLOUDY    56  31  38 E9        29.93S
HOWELL         MOSUNNY   59  26  28 NE8       29.93F

CITY           SKY/WX    TMP DP  RH WIND       PRES   REMARKS
JACKSON        MOSUNNY   58  26  29 E10       29.93S
LAMBERTVILLE   CLOUDY    54  35  47 E7        29.97R
LANSING        SUNNY     58  29  33 NE14      29.95F
LAPEER         FAIR      53  29  39 NE5       29.99R
MASON          SUNNY     59  29  31 E8        29.94R
MONROE         MOSUNNY   53  34  49 SE10      29.96R
MT. CLEMENS    MOSUNNY   55  22  27 E9        29.97R
PONTIAC        CLOUDY    56  27  32 NE7       29.95R
PORT HOPE        N/A     40  30  67 SE6       30.01F
PORT HURON     CLOUDY    48  25  40 N10       30.00R
TRI CITIES     CLOUDY    52  26  36 E8        30.01R
MIDLAND        FAIR      51  24  35 E10       29.99S
TROY           CLOUDY    58  22  25 NE9       29.99R
SAGINAW HB     CLOUDY    52  32  46 N10       29.99S
$$
MIZ043>046-050>051-056>058-064>065-071>073-077>080-272300-
SOUTHWEST LOWER MICHIGAN

CITY           SKY/WX    TMP DP  RH WIND       PRES   REMARKS
BATTLE CREEK   CLOUDY    60  26  27 SE8       29.93R
BENTON HARBOR  CLOUDY    59  38  45 E10       29.90F
BIG RAPIDS     CLOUDY    57  26  29 SE10      29.94S
COLDWATER      CLOUDY    58  32  37 E12       29.93S
FREMONT        FAIR      58  24  26 E9        29.94R
HOLLAND        CLOUDY    58  32  37 E10G20    29.94R
GRAND RAPIDS   CLOUDY    57  31  37 E14       29.95R
IONIA          FAIR      55  35  46 E14       29.94S
KALAMAZOO      CLOUDY    61  28  28 E8        29.93R
LUDINGTON      CLOUDY    54  32  44 N10       29.93S
MARSHALL       CLOUDY    59  27  29 E8        29.92S
MOUNT PLEASANT CLOUDY    54  31  42 E7        29.97F
MUSKEGON       CLOUDY    59  30  33 E14       29.94R
SOUTH HAVEN    CLOUDY    60  31  33 E9        29.91S
$$
MIZ016>042-272300-
NORTHERN LOWER MICHIGAN

CITY           SKY/WX    TMP DP  RH WIND       PRES   REMARKS
ALPENA         MOSUNNY   47  26  44 SE12      30.01F
BEAVER ISLAND  SUNNY     49   9  19 N10G21    30.02F
BELLAIRE       CLOUDY    54  18  24 N7        29.99F
CADILLAC       CLOUDY    58  25  28 CALM      29.94S
CHARLEVOIX     SUNNY     46  20  35 N10       30.05S
FRANKFORT      CLOUDY    48  25  40 N9        29.98S
GAYLORD        SUNNY     53  11  18 NE6       29.97F
GRAYLING       SUNNY     57  18  21 NE7       29.97S
HARBOR SPRINGS SUNNY     52  12  20 N8        30.00F
HOUGHTON LAKE  SUNNY     58  22  24 E6        29.95F
MANISTEE       MOSUNNY   57  25  28 NE12G17   29.95S
OSCODA         SUNNY     43  28  54 E5        30.02R
PELLSTON       SUNNY     51  11  20 NW12      30.01F
ROGERS CITY    MOSUNNY   48  12  23 N8        30.02F
TRAVERSE CITY  PTSUNNY   49  16  26 N8        29.99S
$$
MIZ007>008-015-272300-
EASTERN UPPER MICHIGAN

CITY           SKY/WX    TMP DP  RH WIND       PRES   REMARKS
KINROSS          N/A     39  18  41 N17G23    30.03R WCI  30
MACKINAC ISLAN MOSUNNY   47  17  30 W7        30.02F
NEWBERRY       CLOUDY    42  18  38 NW9G17    30.05R
S. S. MARIE    MOSUNNY   40  22  48 NW16      30.02F WCI  31
MUNISING         N/A     38  22  52 N14       30.08F WCI  30
$$
MIZ004>006-011>014-085-272300-
CENTRAL UPPER MICHIGAN

CITY           SKY/WX    TMP DP  RH WIND       PRES   REMARKS
MANISTIQUE     SUNNY     49  14  23 N14       30.03S
ESCANABA       MOSUNNY   50  18  27 E7G17     30.01F
MENOMINEE      MOSUNNY   46  23  39 E10       30.01F
SAWYER-GWINN   SUNNY     43   7  22 N16       30.06F
$$
MIZ001>003-009>011-084-272300-
WESTERN UPPER MICHIGAN

CITY           SKY/WX    TMP DP  RH WIND       PRES   REMARKS
IRON MOUNTAIN  CLOUDY    52   6  15 NE10      29.99F
HOUGHTON       CLOUDY    45  22  40 E7        30.07F
COPPER HARBOR    N/A     43  16  33 N3        30.10S
IRONWOOD       PTSUNNY   48  21  34 NE10G17   29.98S
$$

ABBREVIATIONS USED IN REMARKS
   TC - TEMPERATURE IN CELSIUS
  WCI - WIND CHILL INDEX
   HX - HEAT INDEX
  VSB - VISIBILITY





USA.gov is the U.S. government's official web portal to all federal, state and local government web resources and services.